Presure
132 133 135 144 143 134 171 168 134 168 175 182 133 131 113 128 169 137 124 110 142 134 138 114 163 117 125 156 150 173 134 174 141 153 169 155 159 140 125 175 162 146 191 141 126
133 129 117 133 127 145 134 133 180 167 155 149 166 162 150 143 160 140 117 109 130 143 130 149 119 132 147 138 130 166 187 120 185 165 127 158 157 173 149 151 178 158 155 189 170
182 178 128 131 129 138 117 154 145 134 144 154 173 166 125 180 151 180 162 143 161 144 130 188 111 151 134 121 183 126 147 150 142 124 175 183 174 169 180 170 179 190 186 152 140
127 172 175 179 146 161 136 172 125 120 127 126 133 136 141 141 144 129 153 151 159 149 190 144 152 126 185 138 122 142 122 157 111 164 125 178 163 192 165 178 190 174 151 190 179
176 196 178 147 188 190 186 191 142 129 146 140 153 166 177 180 179 161 142 126 163 156 153 179 187 163 131 168 111 134 147 163 162 168 176 150 179 211 180 199 193 189 216 213 162
163 206 216 194 171 120 146 184 147 147 186 188 185 166 166 130 145 173 128 156 171 167 189 133 170 176 169 122 180 147 179 171 177 154 200 216 191 216 189 187 208 194 156 216 181
210 154 197 174 182 178 197 125 188 196 139 189 189 163 186 178 183 150 158 164 161 170 154 160 179 146 130 158 192 172 172 177 173 202 114 216 195 223 202 208 164 221 156 158 197
218 164 205 237 148 164 208 205 192 206 211 198 197 140 188 175 180 187 172 166 129 178 175 155 171 173 164 167 181 183 180 181 177 191 191 193 216 223 212 224 200 211 212 191 230
214 218 200 184 227 162 232 222 146 198 177 193 179 167 190 131 195 183 160 181 185 176 130 193 161 189 181 182 180 182 117 151 197 193 195 219 214 228 214 176 188 230 242 232 282
143 230 240 242 250 241 226 223 218 180 207 163 181 207 205 194 183 195 191 191 194 173 183 186 194 202 177 189 192 195 200 203 207 208 212 215 210 215 206 209 238 313 346 346 354
278 210 280 203 224 279 287 222 279 209 225 232 182 217 221 194 205 194 196 170 185 178 186 187 179 185 194 177 206 214 203 203 217 229 225 229 200 227 236 218 361 354 352 352 334
272 289 249 296 292 250 298 272 267 224 225 240 210 222 182 240 163 203 200 199 219 195 197 190 217 204 203 144 212 207 187 211 215 202 214 190 209 231 251 365 365 349 342 332 276
278 234 281 278 232 292 300 279 313 248 288 268 229 225 238 224 198 230 219 184 195 164 213 184 199 219 157 221 214 209 182 218 217 229 221 220 243 305 356 351 343 334 311 296 279
211 299 290 297 268 302 306 301 290 307 276 284 275 269 229 175 222 232 159 225 212 212 238 228 196 221 218 166 198 168 224 221 223 237 231 336 202 331 339 345 322 302 290 286 274
287 304 300 298 314 297 298 290 293 307 311 325 304 265 226 262 266 277 191 185 224 224 193 140 217 221 289 277 210 232 225 211 297 268 332 245 350 340 342 318 296 284 276 269 257
290 299 294 274 293 297 310 287 282 280 312 307 317 310 277 287 243 269 275 221 267 270 283 293 198 198 244 166 251 167 256 293 300 349 348 335 326 339 315 300 285 275 266 253 253
309 257 260 274 299 304 287 287 295 246 284 303 300 285 314 232 287 277 236 250 243 288 226 286 294 285 291 289 289 284 342 317 340 334 289 321 336 318 304 288 274 263 255 261 259
277 273 255 248 260 269 250 159 321 275 313 268 273 294 296 310 309 300 308 308 305 315 315 291 285 294 278 266 271 307 302 300 302 290 320 320 317 295 292 275 264 259 271 262 253
447 354 288 279 268 242 275 260 273 158 260 255 289 295 315 302 292 292 279 303 318 320 316 325 328 284 308 369 345 296 288 277 333 329 331 319 305 293 279 271 261 259 260 256 257
399 402 411 460 289 285 289 291 292 270 251 283 288 299 305 283 288 293 291 298 301 330 328 366 364 255 356 342 351 334 275 319 326 322 321 304 293 280 272 264 262 263 255 255 252
380 382 376 415 422 359 313 299 276 288 275 267 267 235 320 286 304 306 303 289 312 338 352 358 353 343 352 318 301 286 329 323 311 318 301 296 280 276 266 264 263 251 247 252 262
368 362 375 363 411 405 389 356 320 311 302 303 298 298 278 305 291 282 286 307 320 346 344 351 340 343 340 364 338 325 319 323 318 304 289 278 271 273 266 261 249 248 255 271 284
352 312 346 346 380 394 376 354 341 336 317 300 292 296 291 272 295 282 278 342 338 332 343 361 348 349 347 364 334 315 313 322 299 294 285 280 271 268 260 245 248 254 250 289 245
324 330 352 338 379 367 354 340 332 324 307 296 292 301 287 302 287 291 297 333 328 329 349 345 343 341 340 361 333 313 312 301 296 285 277 281 271 268 250 246 252 258 266 255 251
344 273 319 324 364 372 339 327 318 308 295 287 304 302 287 294 274 276 331 322 328 347 338 333 333 335 288 268 321 316 308 292 284 276 274 272 262 260 246 250 249 250 281 252 226
348 339 261 327 362 366 335 315 307 300 293 292 304 291 287 276 294 318 322 327 340 332 326 321 320 270 268 264 313 307 293 283 277 270 274 264 254 247 248 247 255 251 265 248 252
278 336 261 317 353 359 330 308 305 303 299 297 297 262 292 264 278 328 331 338 328 319 311 308 330 321 311 303 303 293 286 275 268 267 267 267 255 247 247 252 254 277 245 241 221
Wind_Speed
55 54 55 58 56 51 62 63 49 57 60 61 49 48 39 44 57 43 39 27 46 41 44 32 50 30 38 47 47 49 45 55 45 47 54 50 50 46 45 57 56 52 67 49 46
64 60 49 59 49 64 55 51 68 65 62 60 63 63 53 48 52 52 34 34 47 51 45 48 35 46 43 41 45 53 60 41 59 53 49 57 55 61 53 58 64 59 59 67 63
72 72 63 62 58 56 42 67 63 59 60 66 67 65 43 69 59 61 59 58 59 51 51 61 32 51 52 47 58 50 50 52 55 42 61 68 62 59 67 61 65 72 66 60 59
62 74 75 75 72 73 69 73 53 45 52 50 61 62 67 64 56 55 61 61 61 61 65 61 58 53 62 54 45 55 56 53 32 57 56 65 60 74 57 67 69 53 55 70 62
75 80 79 68 81 83 80 83 72 62 72 69 66 67 71 70 73 61 65 48 58 67 62 65 65 57 59 59 37 58 57 58 58 63 65 53 68 80 75 72 67 65 80 80 64
81 88 89 82 81 60 74 83 68 70 85 83 84 73 73 58 67 71 53 66 66 65 72 60 65 64 64 54 66 55 69 66 70 66 79 83 79 84 78 77 79 74 69 88 68
100 83 82 79 81 80 92 66 84 88 69 89 88 76 87 80 81 69 71 69 67 70 65 64 72 61 62 60 79 66 67 74 71 81 39 83 83 87 82 88 74 89 69 70 78
98 89 89 101 81 77 97 87 84 90 99 94 94 70 91 81 82 85 76 71 57 75 73 66 69 73 63 62 75 77 74 81 77 84 75 68 88 89 89 92 72 90 88 77 92
101 101 99 89 95 82 103 101 74 95 87 89 85 82 90 65 95 87 75 83 85 77 57 90 73 86 79 84 79 78 35 56 87 83 82 87 90 93 86 71 80 97 96 90 80
77 102 97 105 85 88 99 105 101 93 99 81 89 100 100 96 90 95 93 91 92 79 86 87 89 94 77 85 84 88 88 88 88 84 86 88 94 90 78 84 97 73 62 61 57
95 89 89 75 108 97 93 102 92 91 107 111 88 104 105 96 102 97 97 77 89 85 90 90 82 85 90 75 87 90 88 88 90 91 87 89 88 95 92 87 57 54 52 44 43
89 87 92 85 86 99 85 97 98 86 106 114 94 101 86 110 79 101 101 98 103 95 95 91 102 95 93 64 93 89 76 88 85 79 87 82 87 90 89 51 43 42 36 32 32
89 82 85 83 88 85 85 89 82 96 89 104 109 102 108 105 96 107 102 83 90 66 97 82 88 98 70 96 91 90 78 85 88 89 89 84 87 64 44 38 33 28 27 31 34
77 89 90 87 85 81 81 83 84 81 88 82 92 99 102 85 102 108 71 100 92 88 100 97 90 95 92 68 88 76 89 87 88 88 87 52 71 45 35 29 26 25 28 29 31
85 86 84 86 74 82 81 83 86 83 77 67 72 91 92 100 101 98 93 84 97 96 88 70 89 91 85 91 91 91 89 59 76 74 51 50 36 33 28 24 26 29 31 30 33
82 85 83 77 83 79 72 84 83 80 76 70 63 62 77 78 91 92 93 89 95 89 87 83 83 76 85 65 82 40 62 66 62 36 35 39 31 26 24 23 27 29 30 33 33
84 71 72 76 79 77 83 82 82 67 73 69 59 50 55 48 70 79 85 79 74 84 76 77 77 73 69 66 67 64 48 50 33 35 38 29 23 22 22 23 28 29 29 31 34
81 78 80 71 72 74 69 52 66 66 64 47 45 54 50 57 56 54 56 59 60 64 66 64 68 67 61 55 53 55 48 44 39 35 31 24 22 23 22 27 29 26 27 29 35
68 80 78 83 79 77 78 63 68 53 57 58 70 67 59 53 47 55 55 51 55 57 59 58 56 54 55 32 35 46 42 40 31 28 24 19 21 21 23 25 25 26 26 31 33
66 59 50 50 82 81 84 77 78 69 61 62 59 60 57 48 44 46 43 45 45 46 48 37 34 34 34 32 29 35 37 30 27 21 19 19 20 21 23 23 20 21 25 28 28
56 57 48 38 51 67 76 75 70 70 67 56 49 49 50 39 45 41 39 39 45 39 36 32 29 32 30 33 34 34 29 27 24 19 19 19 20 22 22 17 16 20 22 25 28
46 46 37 31 39 51 51 55 61 60 58 54 54 50 39 45 34 32 31 41 36 31 31 28 25 28 30 28 31 29 28 24 22 20 20 21 21 20 13 12 17 18 19 21 16
37 32 32 29 33 41 43 47 50 49 50 51 48 45 41 32 32 29 31 28 26 28 25 22 20 22 22 28 30 29 25 21 21 21 20 22 19 13 10 16 15 15 15 15 16
35 31 34 24 28 32 40 42 42 44 47 46 42 41 34 35 25 30 31 22 23 22 19 16 17 17 19 25 28 27 23 23 22 20 19 19 14 13 13 15 14 12 13 23 16
36 30 24 21 24 30 40 42 42 44 43 41 39 39 27 26 24 26 20 20 20 14 15 14 15 18 23 24 29 27 26 22 22 19 17 12 13 12 14 13 13 8 11 21 3
39 33 31 18 19 29 42 42 43 43 42 39 36 31 23 17 23 21 18 17 16 11 14 17 19 25 24 23 26 27 25 22 20 18 15 15 15 14 14 12 13 8 34 15 16
33 33 33 20 16 30 42 43 44 43 41 37 33 25 22 23 24 20 17 14 14 17 21 21 23 27 28 25 28 26 24 22 20 18 16 15 16 15 14 14 13 9 21 14 4
Wind_Direction
278 276 277 274 271 274 266 269 272 266 266 265 269 269 258 270 267 261 266 247 275 273 271 262 271 278 277 272 276 285 270 282 279 269 283 280 276 276 267 285 280 272 281 268 263
278 279 270 278 270 274 275 271 266 268 270 270 268 270 265 255 258 270 258 244 268 272 271 273 264 272 271 281 276 277 279 279 279 280 281 278 280 282 280 279 277 277 276 279 276
271 272 279 277 277 260 258 266 274 278 274 268 268 268 259 266 269 265 267 271 271 274 274 274 261 271 266 276 277 280 270 273 275 280 278 279 281 281 280 277 280 280 280 272 269
272 270 269 270 271 270 271 267 276 269 278 276 276 276 276 274 273 267 263 267 267 272 273 267 268 272 277 265 278 269 277 277 273 281 278 281 278 280 276 276 280 276 272 277 275
272 270 269 269 268 266 268 266 264 273 264 270 266 268 268 267 268 265 268 275 270 268 272 272 276 271 267 275 273 275 279 279 280 280 279 279 279 283 278 281 278 278 275 274 267
271 272 269 269 270 266 267 267 265 266 267 264 263 267 268 271 265 272 270 266 271 273 277 267 271 275 273 269 279 278 281 280 280 278 283 285 282 282 282 276 279 284 267 274 276
276 272 272 269 266 270 267 264 264 265 263 265 265 265 265 266 267 269 263 263 264 275 264 266 276 265 264 273 280 279 281 282 282 283 273 286 282 284 278 280 276 276 272 271 283
279 271 282 261 274 266 265 267 264 263 261 262 262 262 264 267 267 266 267 267 265 270 271 269 273 276 274 275 280 279 280 278 284 282 286 286 285 280 281 279 288 284 285 282 283
279 279 267 272 269 262 261 263 265 258 264 260 260 260 263 260 264 266 264 268 269 271 259 272 266 274 276 275 278 279 276 282 280 281 285 285 281 282 284 282 282 283 284 285 280
271 266 278 267 270 270 265 260 264 266 263 257 266 259 259 261 263 262 264 265 265 272 271 272 272 272 272 276 274 276 276 277 277 279 279 280 280 282 291 290 286 288 282 279 278
285 271 276 273 264 268 264 265 263 261 260 261 263 260 258 258 259 260 260 269 264 270 267 268 274 274 273 279 278 276 277 277 280 281 282 280 279 282 285 289 286 283 280 277 272
280 283 272 283 278 269 269 265 263 261 265 262 260 262 264 262 256 259 260 263 262 261 263 268 269 269 271 274 276 276 279 276 277 276 279 280 281 284 288 286 284 275 274 271 269
283 277 280 277 271 276 276 270 268 263 261 260 262 264 264 263 263 264 261 265 261 262 263 267 267 270 274 272 273 273 275 279 274 279 280 284 286 284 283 286 275 272 269 266 268
271 283 282 280 275 273 271 274 272 269 264 263 263 263 262 263 262 265 266 263 263 266 268 266 268 271 273 262 273 269 275 275 278 278 281 278 288 278 285 275 269 270 269 268 267
281 282 281 281 270 273 271 272 274 274 273 269 266 264 262 266 266 266 265 269 263 267 268 260 264 268 276 276 271 276 274 280 285 280 279 278 276 280 269 261 264 269 269 271 272
280 279 278 283 275 273 266 273 275 272 275 277 274 269 263 262 265 268 266 261 269 269 272 273 264 269 271 267 275 270 281 283 282 270 268 273 284 263 255 253 260 264 268 270 273
277 276 271 280 270 268 275 274 270 266 281 282 275 272 274 263 263 265 264 267 266 268 267 273 272 273 276 279 280 282 274 276 267 265 276 276 263 247 245 250 258 264 269 269 267
281 280 268 270 275 279 262 267 268 262 269 269 270 282 280 275 271 268 267 267 269 268 268 268 270 270 272 272 276 275 272 274 270 273 268 266 242 250 240 251 260 267 262 262 267
273 267 271 272 273 263 272 262 274 257 258 256 280 285 276 281 275 265 260 271 274 272 270 272 271 268 268 262 258 268 269 268 252 259 250 236 233 235 243 250 260 267 263 265 271
268 268 265 247 261 262 264 267 267 270 258 272 271 278 277 264 274 267 266 272 273 274 273 274 268 261 259 254 238 241 264 249 249 242 229 224 225 231 240 250 261 259 267 276 284
258 269 271 262 244 250 255 257 263 263 266 267 267 268 268 275 277 276 276 266 275 275 272 270 260 253 249 248 251 256 233 236 243 225 221 212 224 228 242 255 256 259 273 284 294
260 272 277 271 250 238 235 243 250 253 255 257 263 267 267 272 272 266 270 276 273 270 269 264 249 244 239 217 216 219 223 224 214 214 216 222 228 233 243 244 251 267 279 295 190
268 290 277 287 252 239 228 224 233 240 244 251 258 262 270 253 274 262 259 271 266 263 267 264 244 240 233 212 207 215 213 204 207 207 208 211 224 231 226 239 255 271 281 202 286
285 272 279 283 260 232 219 217 221 228 237 247 254 256 265 268 265 269 273 265 262 259 260 245 228 220 214 205 196 206 197 196 198 203 211 213 217 218 217 240 257 274 283 211 254
270 282 275 264 271 224 208 207 215 224 234 241 246 252 261 263 240 257 268 263 265 256 237 212 202 196 203 209 188 194 184 191 195 203 205 193 197 197 221 240 257 263 224 216 327
247 259 279 260 252 213 203 205 215 223 231 238 239 250 252 234 265 263 259 256 252 213 184 185 182 195 196 202 185 179 183 185 191 201 196 181 194 203 222 234 251 243 184 206 199
278 245 274 252 244 208 202 206 213 218 225 231 236 219 252 221 240 262 260 246 203 176 172 173 170 161 172 174 177 178 177 183 195 198 199 187 192 206 219 228 235 240 206 227 326